Regional Weather Roundup
Issued by NWS Upton, NY

Current Version | Previous Version | Text Only | Print | Product List | Glossary Off
Versions: 1 2 3 4 5 6 7 8 9 10 11 12 13 14 15 16 17 18 19 20 21 22 23 24 25 26 27 28 29 30 31 32 33 34 35 36 37 38 39 40 41 42 43 44 45 46 47 48 49 50
976 ASUS41 KOKX 301304 RWROKX REGIONAL WEATHER ROUNDUP NATIONAL WEATHER SERVICE NEW YORK NY 900 AM EDT FRI SEP 30 2016 NOTE: "FAIR" INDICATES FEW OR NO CLOUDS BELOW 12,000 FEET WITH NO SIGNIFICANT WEATHER AND/OR OBSTRUCTIONS TO VISIBILITY. NYZ071-072-176-178-NJZ106-104-301400- NEW YORK CITY METRO AREA CITY SKY/WX TMP DP RH WIND PRES REMARKS Central Park CLOUDY 58 50 75 NE10G18 30.33R LaGuardia APRT CLOUDY 62 54 74 NE26G32 30.30R Kennedy INTL CLOUDY 61 54 77 NE16G25 30.29S Newark/Liberty LGT RAIN 57 53 86 NE18 30.30S FOG Bronx Bot Gard N/A 57 48 72 E6 30.34S Wall St Helipt CLOUDY N/A N/A N/A NE18G29 30.29R Teterboro CLOUDY 58 50 75 NE8 30.31R $$ NYZ177-179-078>081-301400- LONG ISLAND NEW YORK CITY SKY/WX TMP DP RH WIND PRES REMARKS Farmingdale CLOUDY 61 55 81 NE16G25 30.29S MacArthur/ISP CLOUDY 61 55 81 NE23G39 30.29S Shirley CLOUDY 61 55 81 NE9G20 30.31S Riverhead NOT AVBL Westhampton CLOUDY 62 55 77 NE17G32 30.32R Southampton N/A 63 57 82 NE15 30.28S Bridgehampton N/A 61 57 88 E8 30.17S East Hampton CLOUDY 61 55 81 NE20G26 30.33R Montauk N/A 62 56 80 NE17G29 30.34S $$ NYZ052-065-067-301400- HUDSON VALLEY CITY SKY/WX TMP DP RH WIND PRES REMARKS White Plains CLOUDY 57 49 74 NE12G23 30.32S Newburgh CLOUDY 55 50 82 E14 30.38R Montgomery CLOUDY 56 47 71 NE12G22 30.37R Poughkeepsie CLOUDY 56 47 71 NE9 30.37S Albany CLOUDY 57 43 59 NE7 30.45R $$ NJZ001-105-106-008-010-013-015-019>022-104-301400- NEW JERSEY CITY SKY/WX TMP DP RH WIND PRES REMARKS Newark/Liberty LGT RAIN 57 53 86 NE18 30.30S FOG Teterboro CLOUDY 58 50 75 NE8 30.31R Caldwell LGT RAIN 55 52 89 NE7 30.32S FOG Morristown LGT RAIN 54 52 94 NE12 30.32R Somerville LGT RAIN 56 51 84 NE8 30.28S Linden NOT AVBL Sussex CLOUDY 54 48 80 NE10G21 30.34S Abdover N/A 52 49 89 NE8 30.33R Trenton RAIN 55 53 93 NE15 30.26S FOG Millville LGT RAIN 64 64 100 NE17 30.17S Atlantic City LGT RAIN 63 62 97 NE15G35 30.18S FOG Wrightstown LGT RAIN 60 58 95 NE16 30.22R Toms River LGT RAIN 62 61 96 NE17G25 30.24S FOG Belmar RAIN 60 58 92 NE16G22 30.26R FOG $$ PAZ047>061-062-071-301400- EASTERN PENNSYLVANIA CITY SKY/WX TMP DP RH WIND PRES REMARKS Philadelphia LGT RAIN 58 56 93 NE15 30.23R Allentown LGT RAIN 53 49 86 E16G25 30.29S Scranton RAIN 50 48 93 NE7 30.32R FOG $$ CTZ002-004>006-009-010-012-RIZ004-006-007-MAZ004-011-015-301400- SOUTHERN NEW ENGLAND IN CT CITY SKY/WX TMP DP RH WIND PRES REMARKS Bradley INTL CLOUDY 56 48 74 N12 30.42F Hartford CLOUDY 58 50 75 N12 30.40S Danbury CLOUDY 55 48 77 NE13G23 30.36F Wtrbury/Oxford NOT AVBL Bridgeport CLOUDY 60 50 69 NE18 30.34S Meriden CLOUDY 59 49 69 NE13G20 30.38F New Haven CLOUDY 59 51 75 NE12 30.35S Chester PTSUNNY 57 52 82 NE13G20 30.36S Groton PTSUNNY 62 53 72 NE20G28 30.35S Wilimantic PTSUNNY 59 52 77 NE13G21 30.40S IN RI CITY SKY/WX TMP DP RH WIND PRES REMARKS Providence CLOUDY 60 52 74 NE16 30.40F Block Island CLOUDY 61 56 83 NE23G31 30.34F Westerly CLOUDY 61 52 72 NE12G26 30.36F IN MA CITY SKY/WX TMP DP RH WIND PRES REMARKS Boston CLOUDY 59 51 75 NE18 30.47R Worcester CLOUDY 50 46 86 NE12G21 30.44S Westfield CLOUDY 54 47 77 N12 30.44S Provincetown CLOUDY 60 52 74 E14 30.45S Nantucket LGT RAIN 61 54 77 NE18G26 30.37S $$ ANZ330-335-338-340-345-350-353-355-301400- COASTAL MARINE OBSERVATIONS STATION/POSITION TIME SKY/WX TEMP WIND PRES VSBY WAVE AIR SEA DIR/SP/G HT/PER (UTC) (F) (DEG/KT/KT) (MB) (MI) (FT/S) NY HARB ENTRANCE 1150 63 69 50/ 27/ 35 1023.1 10/ 9 20S FIRE ISLAND 1150 64 67 60/ 31/ 39 1022.3 13/ 8 GREAT SOUTH BAY 1230 61 65 60/ 17/ 23 N/A 23 SSW MONTAUK P 1150 63 65 60/ 29/ 35 1025.0 10/ 8 15 E BARNEGAT LI 1130 69 N/A 14/ 9 HUDSON CANYON 1150 68 70 1020.4 13/ 9 KINGS POINT 1230 60 69 1025.9 EXECUTION ROCKS 1245 62 50/ 25/ 35 N/A CENTRAL LI SOUND 1245 62 71 70/ 23/ 27 N/A 4/ 5 EASTERN LI SOUND NOT AVBL ROBBINS REEF 1230 60 50/ 25/ 30 1025.8 $$ >>>>>>>>>>>>>>>>>>>>>>>>>>>> KEY <<<<<<<<<<<<<<<<<<<<<<<<<<< > < > SKY/WX - Sky Condition/Present Weather < > TMP - Temperature in Fahrenheit < > DP - Dew Point in Fahrenheit < > RH - Relative Humidity in Percent < > WIND - Direction (from) and Speed in MPH < > PRES - Mean Sea Level Pressure (inches of Hg) < > WCI - Wind Chill Index < > VSB - VISIBILITY IN MILES < > HX - HEAT INDEX < > TC - TEMPERATURE IN CELSIUS < > VRB - VARIABLE WIND DIRECTION < > < >>>>>>>>>>>>>>>>>>>>>>>>>>>> KEY <<<<<<<<<<<<<<<<<<<<<<<<<<<

USA.gov is the U.S. government's official web portal to all federal, state and local government web resources and services.